QPF
0.00 0.00 0.00 0.01 0.00 0.00 0.00 0.00 0.00 0.00 0.00 0.00 0.00 0.00 0.00 0.00 0.00 0.00 0.00 0.00 0.00 0.00 0.00 0.00 0.01 0.01 0.01 0.02 0.03 0.03 0.02 0.01 0.01 0.01 0.02 0.01 0.01 0.01 0.02 0.03 0.04 0.03 0.02 0.02 0.02 0.02 0.02 0.03 0.03
0.00 0.01 0.00 0.00 0.00 0.00 0.00 0.00 0.00 0.00 0.00 0.00 0.00 0.00 0.00 0.00 0.00 0.00 0.00 0.00 0.00 0.00 0.00 0.00 0.01 0.01 0.01 0.02 0.02 0.03 0.03 0.02 0.02 0.01 0.02 0.01 0.01 0.01 0.02 0.02 0.03 0.03 0.03 0.03 0.03 0.01 0.01 0.02 0.02
0.01 0.01 0.00 0.00 0.00 0.00 0.00 0.00 0.00 0.00 0.00 0.00 0.00 0.00 0.00 0.00 0.00 0.00 0.00 0.00 0.00 0.00 0.00 0.00 0.01 0.01 0.01 0.01 0.01 0.02 0.02 0.02 0.02 0.02 0.02 0.02 0.02 0.02 0.01 0.01 0.02 0.02 0.03 0.03 0.03 0.02 0.01 0.01 0.01
0.01 0.01 0.01 0.00 0.00 0.00 0.00 0.00 0.00 0.00 0.00 0.00 0.00 0.00 0.00 0.00 0.00 0.00 0.00 0.00 0.00 0.00 0.00 0.00 0.01 0.01 0.01 0.01 0.02 0.02 0.02 0.02 0.02 0.02 0.02 0.02 0.02 0.02 0.02 0.02 0.02 0.02 0.02 0.03 0.03 0.03 0.02 0.01 0.01
0.01 0.01 0.01 0.00 0.00 0.00 0.00 0.00 0.00 0.00 0.00 0.00 0.00 0.00 0.00 0.00 0.00 0.00 0.00 0.00 0.00 0.00 0.00 0.00 0.00 0.01 0.01 0.01 0.01 0.02 0.02 0.03 0.04 0.04 0.03 0.02 0.02 0.02 0.02 0.01 0.02 0.02 0.02 0.03 0.03 0.03 0.03 0.02 0.01
0.01 0.01 0.00 0.00 0.00 0.00 0.00 0.00 0.00 0.00 0.00 0.00 0.00 0.00 0.00 0.00 0.00 0.00 0.00 0.00 0.00 0.00 0.00 0.00 0.00 0.01 0.01 0.01 0.01 0.01 0.02 0.03 0.03 0.04 0.03 0.03 0.03 0.03 0.02 0.01 0.01 0.02 0.02 0.03 0.03 0.03 0.02 0.02 0.02
0.01 0.01 0.00 0.00 0.00 0.00 0.00 0.00 0.00 0.00 0.00 0.00 0.00 0.00 0.00 0.00 0.00 0.00 0.00 0.00 0.00 0.00 0.00 0.00 0.00 0.00 0.01 0.00 0.00 0.01 0.01 0.02 0.03 0.04 0.04 0.03 0.03 0.03 0.03 0.02 0.02 0.02 0.02 0.04 0.03 0.02 0.02 0.02 0.02
0.00 0.01 0.00 0.00 0.00 0.00 0.00 0.00 0.00 0.00 0.00 0.00 0.00 0.00 0.00 0.00 0.00 0.00 0.00 0.00 0.00 0.00 0.00 0.00 0.00 0.00 0.00 0.00 0.00 0.01 0.01 0.02 0.03 0.04 0.04 0.03 0.03 0.03 0.02 0.02 0.02 0.02 0.02 0.03 0.03 0.02 0.02 0.02 0.03
0.01 0.01 0.01 0.00 0.00 0.00 0.00 0.00 0.00 0.00 0.00 0.00 0.00 0.00 0.00 0.00 0.00 0.00 0.00 0.00 0.00 0.00 0.00 0.00 0.00 0.00 0.00 0.00 0.00 0.01 0.01 0.01 0.02 0.02 0.03 0.03 0.02 0.02 0.02 0.01 0.01 0.02 0.02 0.03 0.02 0.03 0.03 0.03 0.03
0.01 0.01 0.01 0.00 0.00 0.00 0.00 0.00 0.00 0.00 0.00 0.00 0.00 0.00 0.00 0.00 0.00 0.00 0.00 0.00 0.00 0.01 0.01 0.01 0.00 0.00 0.00 0.01 0.01 0.01 0.01 0.01 0.01 0.01 0.02 0.03 0.03 0.02 0.02 0.02 0.01 0.02 0.02 0.03 0.03 0.04 0.04 0.03 0.02
0.01 0.00 0.00 0.00 0.00 0.00 0.00 0.00 0.00 0.00 0.00 0.00 0.00 0.00 0.00 0.00 0.00 0.00 0.00 0.00 0.00 0.01 0.01 0.02 0.03 0.02 0.01 0.01 0.01 0.01 0.01 0.01 0.01 0.01 0.01 0.02 0.03 0.03 0.02 0.02 0.02 0.02 0.03 0.03 0.02 0.03 0.02 0.02 0.01
0.01 0.01 0.00 0.00 0.01 0.01 0.00 0.00 0.00 0.00 0.00 0.00 0.00 0.00 0.00 0.00 0.00 0.00 0.00 0.00 0.00 0.00 0.00 0.01 0.02 0.03 0.03 0.02 0.01 0.01 0.01 0.02 0.02 0.01 0.01 0.02 0.02 0.03 0.03 0.02 0.02 0.03 0.03 0.03 0.03 0.02 0.02 0.02 0.01
0.01 0.01 0.01 0.01 0.01 0.01 0.01 0.00 0.00 0.00 0.00 0.00 0.00 0.00 0.00 0.00 0.00 0.00 0.00 0.00 0.00 0.00 0.00 0.00 0.01 0.01 0.03 0.03 0.02 0.02 0.02 0.02 0.01 0.01 0.01 0.02 0.02 0.02 0.02 0.02 0.02 0.02 0.03 0.03 0.03 0.03 0.02 0.02 0.02
0.01 0.01 0.01 0.01 0.01 0.01 0.01 0.01 0.00 0.00 0.00 0.00 0.00 0.00 0.00 0.00 0.00 0.00 0.00 0.00 0.00 0.00 0.00 0.00 0.00 0.01 0.01 0.01 0.01 0.02 0.02 0.01 0.01 0.01 0.01 0.01 0.02 0.02 0.02 0.02 0.02 0.02 0.02 0.03 0.03 0.03 0.02 0.02 0.02
0.01 0.01 0.01 0.00 0.01 0.01 0.01 0.01 0.01 0.00 0.00 0.00 0.00 0.00 0.00 0.00 0.00 0.00 0.00 0.00 0.00 0.00 0.00 0.00 0.00 0.00 0.01 0.01 0.01 0.01 0.01 0.01 0.01 0.01 0.01 0.01 0.01 0.01 0.02 0.02 0.03 0.02 0.03 0.03 0.03 0.03 0.03 0.02 0.02
0.02 0.01 0.01 0.01 0.01 0.01 0.02 0.01 0.00 0.00 0.00 0.00 0.00 0.00 0.00 0.00 0.00 0.00 0.00 0.00 0.00 0.00 0.00 0.00 0.00 0.00 0.01 0.01 0.01 0.01 0.01 0.01 0.01 0.01 0.01 0.01 0.00 0.01 0.02 0.02 0.03 0.04 0.04 0.03 0.03 0.03 0.03 0.03 0.02
0.03 0.02 0.01 0.01 0.01 0.01 0.02 0.02 0.00 0.00 0.00 0.00 0.00 0.00 0.00 0.00 0.00 0.00 0.00 0.00 0.00 0.00 0.00 0.00 0.00 0.00 0.00 0.01 0.01 0.01 0.01 0.01 0.01 0.01 0.01 0.01 0.00 0.01 0.02 0.02 0.03 0.04 0.06 0.05 0.04 0.03 0.03 0.03 0.03
0.03 0.02 0.01 0.01 0.01 0.01 0.01 0.01 0.00 0.00 0.00 0.00 0.00 0.00 0.00 0.00 0.00 0.00 0.00 0.00 0.00 0.00 0.00 0.00 0.00 0.00 0.00 0.01 0.01 0.01 0.02 0.02 0.02 0.01 0.01 0.01 0.01 0.01 0.01 0.02 0.02 0.03 0.05 0.05 0.05 0.04 0.04 0.03 0.03
0.03 0.02 0.01 0.01 0.01 0.01 0.01 0.01 0.00 0.00 0.00 0.00 0.00 0.00 0.00 0.00 0.00 0.00 0.00 0.00 0.00 0.00 0.00 0.00 0.00 0.00 0.00 0.01 0.01 0.01 0.01 0.01 0.01 0.02 0.01 0.01 0.01 0.01 0.01 0.02 0.02 0.03 0.04 0.05 0.05 0.05 0.05 0.04 0.03
0.02 0.02 0.01 0.01 0.01 0.01 0.01 0.00 0.00 0.00 0.00 0.00 0.00 0.00 0.00 0.00 0.00 0.00 0.00 0.00 0.00 0.00 0.00 0.00 0.00 0.00 0.00 0.00 0.00 0.01 0.01 0.01 0.01 0.01 0.01 0.01 0.01 0.01 0.02 0.01 0.02 0.03 0.04 0.04 0.05 0.06 0.05 0.05 0.04
0.02 0.02 0.01 0.01 0.01 0.01 0.01 0.01 0.00 0.00 0.00 0.00 0.00 0.00 0.00 0.00 0.00 0.00 0.00 0.00 0.00 0.00 0.00 0.00 0.00 0.00 0.00 0.00 0.00 0.01 0.02 0.02 0.02 0.02 0.01 0.01 0.01 0.01 0.01 0.01 0.02 0.03 0.05 0.07 0.06 0.06 0.06 0.05 0.04
0.02 0.01 0.01 0.01 0.02 0.02 0.01 0.01 0.00 0.00 0.00 0.00 0.00 0.00 0.00 0.00 0.00 0.00 0.00 0.00 0.00 0.00 0.00 0.00 0.00 0.00 0.00 0.01 0.01 0.01 0.02 0.01 0.01 0.01 0.01 0.01 0.01 0.01 0.01 0.01 0.01 0.02 0.04 0.07 0.10 0.08 0.07 0.07 0.05
0.01 0.01 0.01 0.01 0.02 0.03 0.01 0.01 0.00 0.00 0.00 0.00 0.00 0.00 0.00 0.00 0.00 0.00 0.00 0.00 0.00 0.00 0.00 0.00 0.00 0.01 0.01 0.01 0.02 0.02 0.03 0.03 0.02 0.02 0.02 0.02 0.02 0.02 0.01 0.01 0.01 0.01 0.02 0.03 0.06 0.09 0.11 0.10 0.08
0.01 0.02 0.02 0.02 0.03 0.03 0.01 0.01 0.00 0.00 0.00 0.00 0.00 0.00 0.00 0.00 0.00 0.00 0.00 0.00 0.00 0.00 0.00 0.00 0.00 0.01 0.01 0.02 0.02 0.02 0.03 0.03 0.04 0.05 0.04 0.03 0.02 0.02 0.01 0.01 0.01 0.01 0.02 0.02 0.03 0.05 0.08 0.09 0.08
0.03 0.04 0.06 0.07 0.06 0.02 0.00 0.00 0.00 0.00 0.00 0.00 0.00 0.00 0.00 0.00 0.00 0.00 0.00 0.00 0.00 0.00 0.00 0.01 0.01 0.01 0.01 0.02 0.02 0.02 0.02 0.02 0.02 0.03 0.04 0.03 0.01 0.02 0.03 0.03 0.02 0.02 0.02 0.03 0.04 0.04 0.05 0.05 0.05
0.02 0.04 0.05 0.04 0.02 0.01 0.00 0.00 0.00 0.00 0.00 0.00 0.00 0.00 0.00 0.00 0.00 0.00 0.00 0.00 0.00 0.00 0.01 0.02 0.02 0.02 0.02 0.02 0.03 0.03 0.03 0.02 0.02 0.02 0.02 0.03 0.02 0.02 0.04 0.04 0.04 0.04 0.03 0.04 0.05 0.06 0.06 0.06 0.06
0.02 0.02 0.02 0.03 0.02 0.01 0.00 0.00 0.00 0.00 0.00 0.00 0.00 0.00 0.00 0.00 0.00 0.00 0.00 0.00 0.00 0.00 0.00 0.00 0.00 0.01 0.01 0.02 0.03 0.03 0.03 0.02 0.02 0.02 0.02 0.02 0.02 0.03 0.03 0.04 0.04 0.05 0.04 0.04 0.04 0.06 0.06 0.07 0.07
0.02 0.02 0.03 0.05 0.04 0.01 0.00 0.00 0.00 0.00 0.00 0.00 0.00 0.00 0.00 0.00 0.00 0.00 0.00 0.00 0.00 0.00 0.00 0.00 0.00 0.00 0.00 0.00 0.01 0.01 0.02 0.02 0.03 0.03 0.02 0.02 0.02 0.02 0.02 0.03 0.03 0.03 0.03 0.04 0.04 0.04 0.05 0.06 0.08
0.02 0.04 0.04 0.04 0.03 0.02 0.01 0.00 0.00 0.00 0.00 0.00 0.00 0.00 0.00 0.00 0.00 0.00 0.00 0.00 0.00 0.00 0.00 0.00 0.00 0.00 0.00 0.00 0.00 0.00 0.01 0.01 0.02 0.03 0.03 0.02 0.01 0.01 0.02 0.02 0.02 0.02 0.03 0.04 0.04 0.04 0.04 0.04 0.06
0.01 0.02 0.04 0.04 0.03 0.01 0.01 0.00 0.00 0.00 0.00 0.00 0.00 0.00 0.00 0.00 0.00 0.00 0.00 0.00 0.00 0.00 0.00 0.00 0.00 0.00 0.00 0.00 0.00 0.00 0.01 0.01 0.01 0.01 0.02 0.02 0.01 0.01 0.01 0.02 0.03 0.03 0.03 0.03 0.04 0.05 0.05 0.04 0.04
MSLP
1010.11 1010.87 1011.75 1012.62 1013.35 1013.81 1013.93 1013.71 1013.18 1012.45 1011.63 1010.85 1010.18 1009.66 1009.29 1009.02 1008.79 1008.55 1008.29 1008.00 1007.73 1007.54 1007.49 1007.60 1007.88 1008.30 1008.80 1009.30 1009.76 1010.13 1010.41 1010.64 1010.84 1011.06 1011.34 1011.67 1012.05 1012.44 1012.79 1013.08 1013.29 1013.42 1013.49 1013.54 1013.60 1013.69 1013.82 1013.99 1014.17
1010.49 1011.33 1012.24 1013.08 1013.71 1014.02 1013.95 1013.50 1012.76 1011.82 1010.83 1009.92 1009.16 1008.61 1008.23 1007.99 1007.83 1007.67 1007.49 1007.31 1007.14 1007.04 1007.07 1007.26 1007.60 1008.08 1008.63 1009.19 1009.70 1010.12 1010.46 1010.74 1010.98 1011.22 1011.50 1011.82 1012.17 1012.52 1012.84 1013.11 1013.30 1013.44 1013.53 1013.60 1013.67 1013.76 1013.89 1014.03 1014.18
1010.91 1011.77 1012.65 1013.40 1013.89 1014.02 1013.76 1013.12 1012.20 1011.11 1010.01 1009.02 1008.22 1007.66 1007.29 1007.09 1006.98 1006.89 1006.80 1006.70 1006.62 1006.62 1006.73 1006.99 1007.40 1007.93 1008.52 1009.12 1009.67 1010.14 1010.52 1010.83 1011.09 1011.35 1011.62 1011.91 1012.22 1012.52 1012.81 1013.04 1013.23 1013.37 1013.48 1013.57 1013.67 1013.79 1013.91 1014.04 1014.17
1011.32 1012.15 1012.94 1013.56 1013.88 1013.83 1013.40 1012.61 1011.57 1010.41 1009.26 1008.26 1007.46 1006.91 1006.58 1006.42 1006.35 1006.33 1006.31 1006.29 1006.30 1006.38 1006.56 1006.88 1007.34 1007.89 1008.50 1009.11 1009.67 1010.16 1010.56 1010.88 1011.16 1011.42 1011.68 1011.95 1012.22 1012.48 1012.72 1012.93 1013.11 1013.26 1013.39 1013.52 1013.65 1013.79 1013.92 1014.05 1014.17
1011.65 1012.40 1013.07 1013.52 1013.67 1013.46 1012.90 1012.02 1010.93 1009.77 1008.65 1007.70 1006.96 1006.46 1006.17 1006.05 1006.02 1006.05 1006.09 1006.14 1006.22 1006.37 1006.61 1006.97 1007.44 1007.99 1008.58 1009.16 1009.70 1010.16 1010.55 1010.88 1011.17 1011.43 1011.69 1011.94 1012.19 1012.43 1012.65 1012.84 1013.01 1013.17 1013.33 1013.48 1013.63 1013.79 1013.93 1014.07 1014.18
1011.84 1012.48 1013.00 1013.29 1013.29 1012.95 1012.31 1011.41 1010.35 1009.25 1008.23 1007.37 1006.72 1006.29 1006.06 1005.97 1005.99 1006.05 1006.13 1006.24 1006.38 1006.58 1006.86 1007.23 1007.68 1008.19 1008.73 1009.24 1009.72 1010.14 1010.50 1010.82 1011.11 1011.39 1011.66 1011.93 1012.18 1012.41 1012.62 1012.81 1012.98 1013.14 1013.30 1013.47 1013.64 1013.80 1013.95 1014.07 1014.17
1011.85 1012.38 1012.74 1012.89 1012.76 1012.35 1011.68 1010.82 1009.85 1008.88 1007.99 1007.26 1006.71 1006.36 1006.18 1006.13 1006.16 1006.25 1006.36 1006.50 1006.68 1006.91 1007.21 1007.58 1007.99 1008.44 1008.89 1009.32 1009.72 1010.08 1010.40 1010.71 1011.01 1011.32 1011.62 1011.92 1012.20 1012.46 1012.67 1012.86 1013.03 1013.18 1013.34 1013.50 1013.66 1013.81 1013.94 1014.05 1014.12
1011.70 1012.10 1012.33 1012.35 1012.14 1011.70 1011.06 1010.28 1009.45 1008.63 1007.90 1007.30 1006.86 1006.58 1006.44 1006.40 1006.43 1006.51 1006.63 1006.79 1006.99 1007.24 1007.55 1007.90 1008.27 1008.65 1009.02 1009.36 1009.67 1009.97 1010.26 1010.57 1010.89 1011.23 1011.59 1011.93 1012.26 1012.54 1012.77 1012.97 1013.13 1013.27 1013.40 1013.54 1013.67 1013.80 1013.90 1013.98 1014.03
1011.44 1011.71 1011.82 1011.75 1011.48 1011.05 1010.47 1009.81 1009.12 1008.47 1007.89 1007.42 1007.07 1006.84 1006.70 1006.65 1006.66 1006.72 1006.82 1006.98 1007.19 1007.45 1007.75 1008.08 1008.42 1008.74 1009.04 1009.31 1009.57 1009.82 1010.09 1010.40 1010.75 1011.14 1011.54 1011.94 1012.31 1012.63 1012.88 1013.07 1013.22 1013.34 1013.45 1013.55 1013.66 1013.75 1013.82 1013.87 1013.90
1011.10 1011.26 1011.27 1011.12 1010.84 1010.43 1009.94 1009.40 1008.86 1008.36 1007.91 1007.55 1007.26 1007.04 1006.89 1006.80 1006.76 1006.77 1006.84 1006.98 1007.18 1007.44 1007.74 1008.06 1008.38 1008.67 1008.93 1009.17 1009.39 1009.63 1009.90 1010.22 1010.61 1011.03 1011.48 1011.93 1012.33 1012.67 1012.93 1013.13 1013.26 1013.36 1013.44 1013.52 1013.59 1013.66 1013.71 1013.74 1013.74
1010.74 1010.80 1010.73 1010.54 1010.25 1009.89 1009.48 1009.05 1008.64 1008.26 1007.92 1007.62 1007.36 1007.14 1006.95 1006.79 1006.69 1006.63 1006.66 1006.75 1006.93 1007.18 1007.48 1007.80 1008.12 1008.41 1008.68 1008.92 1009.15 1009.40 1009.69 1010.04 1010.45 1010.90 1011.38 1011.84 1012.26 1012.61 1012.88 1013.07 1013.20 1013.29 1013.36 1013.42 1013.48 1013.53 1013.58 1013.60 1013.59
1010.41 1010.37 1010.23 1010.01 1009.73 1009.41 1009.08 1008.75 1008.44 1008.14 1007.87 1007.61 1007.35 1007.10 1006.86 1006.64 1006.46 1006.33 1006.29 1006.33 1006.47 1006.70 1006.99 1007.32 1007.66 1007.99 1008.29 1008.57 1008.85 1009.14 1009.46 1009.84 1010.27 1010.73 1011.21 1011.67 1012.09 1012.43 1012.70 1012.89 1013.02 1013.12 1013.20 1013.27 1013.34 1013.40 1013.45 1013.48 1013.48
1010.09 1009.98 1009.79 1009.55 1009.29 1009.01 1008.74 1008.47 1008.22 1007.99 1007.74 1007.49 1007.23 1006.95 1006.66 1006.37 1006.11 1005.92 1005.80 1005.78 1005.87 1006.06 1006.34 1006.68 1007.05 1007.42 1007.79 1008.15 1008.49 1008.85 1009.22 1009.62 1010.06 1010.52 1010.97 1011.41 1011.80 1012.12 1012.39 1012.59 1012.75 1012.87 1012.98 1013.09 1013.20 1013.29 1013.37 1013.41 1013.43
1009.77 1009.61 1009.40 1009.15 1008.90 1008.66 1008.42 1008.20 1007.98 1007.76 1007.53 1007.27 1006.99 1006.68 1006.35 1006.02 1005.71 1005.45 1005.27 1005.19 1005.22 1005.36 1005.61 1005.94 1006.34 1006.77 1007.22 1007.66 1008.09 1008.52 1008.95 1009.38 1009.81 1010.25 1010.67 1011.06 1011.42 1011.73 1011.99 1012.21 1012.41 1012.58 1012.75 1012.92 1013.08 1013.22 1013.33 1013.40 1013.43
1009.43 1009.24 1009.02 1008.78 1008.55 1008.33 1008.11 1007.90 1007.68 1007.45 1007.21 1006.93 1006.64 1006.32 1005.97 1005.63 1005.29 1004.99 1004.75 1004.61 1004.57 1004.66 1004.86 1005.18 1005.60 1006.08 1006.60 1007.13 1007.65 1008.16 1008.64 1009.10 1009.53 1009.94 1010.32 1010.67 1010.99 1011.29 1011.56 1011.82 1012.06 1012.30 1012.55 1012.78 1013.00 1013.19 1013.34 1013.43 1013.47
1009.04 1008.84 1008.64 1008.43 1008.23 1008.02 1007.80 1007.57 1007.32 1007.05 1006.76 1006.47 1006.16 1005.84 1005.50 1005.17 1004.83 1004.52 1004.26 1004.06 1003.97 1003.99 1004.15 1004.45 1004.86 1005.38 1005.96 1006.57 1007.18 1007.76 1008.30 1008.79 1009.22 1009.61 1009.96 1010.27 1010.57 1010.86 1011.15 1011.45 1011.76 1012.07 1012.38 1012.69 1012.96 1013.20 1013.37 1013.48 1013.51
1008.59 1008.42 1008.26 1008.09 1007.92 1007.72 1007.48 1007.20 1006.88 1006.54 1006.19 1005.85 1005.53 1005.21 1004.91 1004.61 1004.32 1004.03 1003.77 1003.55 1003.41 1003.39 1003.50 1003.76 1004.17 1004.70 1005.33 1006.00 1006.69 1007.34 1007.94 1008.46 1008.90 1009.28 1009.61 1009.91 1010.20 1010.50 1010.82 1011.16 1011.53 1011.90 1012.28 1012.63 1012.94 1013.20 1013.39 1013.49 1013.52
1008.09 1007.97 1007.88 1007.77 1007.63 1007.43 1007.15 1006.79 1006.38 1005.93 1005.49 1005.09 1004.73 1004.43 1004.17 1003.93 1003.71 1003.48 1003.25 1003.04 1002.89 1002.83 1002.90 1003.13 1003.52 1004.06 1004.72 1005.45 1006.19 1006.91 1007.56 1008.12 1008.59 1008.97 1009.30 1009.60 1009.90 1010.22 1010.58 1010.96 1011.38 1011.80 1012.21 1012.59 1012.92 1013.18 1013.37 1013.47 1013.49
1007.54 1007.51 1007.51 1007.48 1007.37 1007.16 1006.82 1006.37 1005.82 1005.24 1004.68 1004.18 1003.78 1003.48 1003.26 1003.10 1002.96 1002.82 1002.66 1002.50 1002.37 1002.30 1002.36 1002.56 1002.94 1003.49 1004.17 1004.93 1005.73 1006.50 1007.20 1007.80 1008.29 1008.70 1009.05 1009.37 1009.69 1010.04 1010.42 1010.85 1011.29 1011.74 1012.17 1012.55 1012.88 1013.13 1013.30 1013.39 1013.41
1006.97 1007.05 1007.15 1007.20 1007.14 1006.91 1006.51 1005.93 1005.24 1004.49 1003.78 1003.17 1002.70 1002.39 1002.21 1002.13 1002.10 1002.07 1002.01 1001.93 1001.85 1001.82 1001.88 1002.08 1002.46 1003.01 1003.70 1004.49 1005.32 1006.13 1006.87 1007.51 1008.05 1008.49 1008.87 1009.22 1009.57 1009.94 1010.36 1010.80 1011.25 1011.70 1012.12 1012.49 1012.80 1013.03 1013.18 1013.27 1013.29
1006.37 1006.57 1006.79 1006.93 1006.91 1006.67 1006.18 1005.48 1004.63 1003.72 1002.85 1002.11 1001.57 1001.23 1001.09 1001.09 1001.16 1001.26 1001.32 1001.35 1001.36 1001.39 1001.49 1001.72 1002.10 1002.66 1003.36 1004.16 1005.01 1005.85 1006.62 1007.30 1007.88 1008.35 1008.77 1009.15 1009.53 1009.93 1010.36 1010.80 1011.26 1011.69 1012.08 1012.42 1012.69 1012.90 1013.05 1013.13 1013.18
1005.71 1006.05 1006.38 1006.61 1006.63 1006.38 1005.83 1005.02 1004.02 1002.95 1001.93 1001.08 1000.46 1000.10 999.99 1000.06 1000.25 1000.47 1000.68 1000.83 1000.95 1001.06 1001.22 1001.48 1001.89 1002.46 1003.16 1003.97 1004.83 1005.69 1006.49 1007.19 1007.80 1008.31 1008.76 1009.17 1009.58 1009.99 1010.42 1010.86 1011.29 1011.69 1012.05 1012.35 1012.59 1012.78 1012.91 1013.02 1013.09
1004.98 1005.44 1005.88 1006.19 1006.26 1006.00 1005.41 1004.51 1003.41 1002.22 1001.09 1000.15 999.48 999.11 999.03 999.17 999.46 999.81 1000.14 1000.43 1000.66 1000.86 1001.10 1001.41 1001.84 1002.42 1003.13 1003.94 1004.80 1005.66 1006.47 1007.20 1007.83 1008.37 1008.85 1009.29 1009.71 1010.13 1010.56 1010.98 1011.38 1011.74 1012.05 1012.31 1012.52 1012.69 1012.82 1012.94 1013.04
1004.14 1004.70 1005.24 1005.62 1005.73 1005.49 1004.88 1003.94 1002.78 1001.53 1000.36 999.38 998.69 998.34 998.29 998.50 998.89 999.34 999.79 1000.19 1000.53 1000.83 1001.13 1001.49 1001.96 1002.55 1003.26 1004.07 1004.93 1005.78 1006.60 1007.33 1007.98 1008.54 1009.04 1009.50 1009.93 1010.36 1010.77 1011.16 1011.53 1011.85 1012.12 1012.34 1012.51 1012.65 1012.78 1012.91 1013.03
1003.21 1003.84 1004.43 1004.86 1005.01 1004.79 1004.20 1003.28 1002.13 1000.90 999.74 998.78 998.13 997.82 997.83 998.11 998.57 999.11 999.65 1000.14 1000.57 1000.95 1001.31 1001.73 1002.22 1002.83 1003.54 1004.34 1005.19 1006.04 1006.85 1007.59 1008.25 1008.83 1009.35 1009.82 1010.26 1010.67 1011.07 1011.43 1011.76 1012.04 1012.26 1012.43 1012.57 1012.69 1012.80 1012.92 1013.04
1002.21 1002.85 1003.47 1003.92 1004.09 1003.92 1003.38 1002.52 1001.44 1000.29 999.22 998.35 997.78 997.54 997.63 997.97 998.50 999.11 999.71 1000.27 1000.76 1001.20 1001.62 1002.07 1002.60 1003.22 1003.93 1004.73 1005.57 1006.41 1007.22 1007.97 1008.63 1009.23 1009.76 1010.23 1010.67 1011.08 1011.46 1011.79 1012.08 1012.31 1012.48 1012.61 1012.70 1012.78 1012.86 1012.95 1013.04
1001.20 1001.82 1002.40 1002.84 1003.02 1002.88 1002.41 1001.66 1000.71 999.71 998.78 998.05 997.61 997.47 997.64 998.05 998.62 999.27 999.92 1000.52 1001.06 1001.54 1002.01 1002.50 1003.05 1003.69 1004.41 1005.21 1006.04 1006.88 1007.68 1008.43 1009.10 1009.70 1010.24 1010.73 1011.17 1011.57 1011.92 1012.23 1012.47 1012.65 1012.78 1012.85 1012.89 1012.91 1012.94 1012.97 1013.02
1000.26 1000.79 1001.30 1001.68 1001.85 1001.75 1001.36 1000.73 999.94 999.12 998.38 997.82 997.53 997.51 997.77 998.24 998.85 999.53 1000.20 1000.83 1001.40 1001.92 1002.42 1002.95 1003.54 1004.21 1004.95 1005.75 1006.58 1007.41 1008.22 1008.96 1009.64 1010.24 1010.79 1011.27 1011.71 1012.10 1012.43 1012.71 1012.91 1013.05 1013.11 1013.13 1013.10 1013.06 1013.02 1012.98 1012.96
999.46 999.85 1000.24 1000.54 1000.67 1000.58 1000.26 999.76 999.14 998.51 997.97 997.60 997.46 997.58 997.92 998.44 999.09 999.78 1000.47 1001.12 1001.72 1002.28 1002.84 1003.42 1004.05 1004.76 1005.52 1006.34 1007.17 1008.01 1008.80 1009.54 1010.21 1010.81 1011.36 1011.84 1012.27 1012.65 1012.96 1013.20 1013.37 1013.46 1013.47 1013.41 1013.32 1013.21 1013.09 1012.97 1012.87
998.84 999.06 999.30 999.49 999.56 999.46 999.20 998.81 998.34 997.89 997.53 997.34 997.35 997.58 998.00 998.57 999.24 999.96 1000.67 1001.35 1001.99 1002.61 1003.24 1003.89 1004.58 1005.34 1006.14 1006.97 1007.81 1008.64 1009.42 1010.14 1010.80 1011.39 1011.92 1012.40 1012.82 1013.17 1013.47 1013.68 1013.81 1013.85 1013.81 1013.70 1013.54 1013.35 1013.15 1012.96 1012.78
Thickness
5721 5722 5722 5715 5699 5684 5690 5704 5713 5720 5726 5735 5738 5737 5733 5732 5731 5730 5746 5753 5755 5755 5755 5754 5754 5753 5752 5751 5750 5750 5749 5749 5748 5747 5747 5746 5746 5745 5744 5744 5743 5742 5742 5741 5740 5740 5738 5737 5736
5716 5717 5711 5700 5685 5678 5690 5705 5711 5720 5729 5733 5735 5735 5732 5733 5739 5742 5745 5749 5752 5752 5751 5751 5750 5749 5748 5748 5747 5746 5745 5745 5744 5744 5743 5743 5742 5741 5741 5740 5739 5739 5738 5737 5737 5736 5735 5734 5732
5712 5711 5698 5687 5680 5681 5697 5710 5713 5721 5726 5729 5728 5730 5730 5731 5737 5740 5744 5747 5747 5747 5747 5747 5747 5746 5745 5744 5743 5742 5742 5741 5740 5740 5739 5739 5738 5737 5737 5736 5735 5734 5734 5733 5733 5732 5731 5730 5728
5704 5697 5688 5680 5683 5690 5699 5710 5714 5716 5722 5725 5725 5722 5728 5733 5736 5739 5742 5743 5743 5743 5743 5743 5742 5742 5741 5740 5739 5739 5738 5737 5737 5736 5735 5735 5734 5733 5733 5732 5731 5730 5730 5729 5728 5727 5726 5725 5724
5694 5684 5676 5673 5681 5692 5699 5707 5712 5712 5714 5718 5719 5717 5721 5730 5734 5737 5738 5738 5738 5738 5739 5738 5738 5738 5737 5736 5735 5735 5734 5733 5733 5732 5731 5731 5730 5729 5729 5728 5727 5726 5725 5725 5724 5723 5722 5721 5720
5680 5674 5665 5667 5678 5689 5697 5704 5708 5708 5709 5713 5714 5712 5717 5726 5728 5730 5733 5733 5734 5734 5734 5734 5733 5733 5733 5732 5731 5730 5730 5729 5728 5727 5727 5726 5726 5725 5724 5723 5723 5722 5721 5720 5719 5719 5718 5717 5716
5672 5666 5664 5669 5674 5684 5696 5702 5703 5703 5705 5708 5711 5708 5713 5720 5724 5726 5727 5728 5728 5729 5729 5729 5729 5728 5728 5727 5726 5726 5725 5724 5724 5723 5722 5722 5721 5720 5720 5719 5718 5717 5716 5716 5715 5714 5714 5713 5712
5672 5664 5665 5665 5671 5681 5693 5698 5701 5701 5702 5708 5709 5704 5706 5716 5719 5720 5720 5721 5721 5722 5723 5723 5724 5724 5723 5722 5722 5721 5720 5719 5719 5718 5718 5717 5716 5715 5714 5714 5713 5712 5712 5711 5710 5710 5709 5709 5708
5669 5657 5658 5665 5670 5679 5689 5691 5696 5700 5700 5702 5705 5707 5710 5713 5713 5713 5712 5713 5714 5715 5716 5718 5718 5718 5718 5717 5717 5716 5715 5714 5714 5713 5712 5712 5711 5710 5709 5708 5708 5707 5707 5706 5705 5705 5704 5703 5702
5659 5652 5662 5671 5674 5678 5683 5685 5689 5692 5691 5694 5698 5702 5705 5706 5707 5706 5706 5706 5708 5710 5711 5712 5713 5713 5713 5712 5712 5711 5709 5709 5708 5707 5707 5706 5705 5704 5703 5703 5702 5702 5701 5701 5700 5699 5698 5697 5697
5656 5656 5663 5669 5673 5676 5677 5679 5683 5684 5684 5689 5692 5696 5698 5698 5700 5700 5701 5702 5704 5705 5706 5707 5708 5708 5708 5707 5707 5705 5704 5703 5703 5702 5701 5700 5699 5698 5698 5697 5696 5696 5696 5695 5694 5693 5692 5691 5691
5650 5655 5660 5665 5669 5670 5671 5673 5675 5678 5684 5691 5693 5693 5693 5692 5694 5695 5697 5698 5699 5700 5701 5702 5702 5703 5703 5702 5701 5700 5699 5698 5697 5696 5695 5694 5693 5692 5691 5691 5690 5690 5689 5689 5688 5687 5686 5685 5685
5644 5650 5655 5658 5660 5662 5664 5665 5668 5675 5681 5684 5685 5686 5687 5687 5689 5692 5694 5694 5694 5695 5696 5697 5697 5697 5697 5696 5695 5694 5693 5693 5691 5690 5689 5688 5687 5686 5685 5684 5683 5683 5682 5682 5681 5680 5680 5679 5678
5641 5643 5646 5650 5653 5656 5657 5661 5662 5673 5676 5677 5678 5680 5682 5683 5686 5687 5688 5689 5690 5691 5691 5692 5692 5692 5692 5690 5689 5688 5687 5687 5686 5684 5683 5682 5681 5679 5678 5677 5676 5675 5675 5674 5674 5674 5673 5672 5671
5634 5633 5637 5643 5646 5649 5650 5653 5660 5669 5669 5670 5672 5675 5678 5680 5682 5683 5685 5686 5686 5687 5687 5687 5687 5687 5686 5685 5683 5682 5681 5680 5679 5678 5676 5675 5674 5672 5671 5669 5668 5667 5667 5666 5666 5666 5665 5665 5664
5623 5621 5623 5637 5640 5643 5640 5646 5662 5664 5662 5663 5666 5668 5671 5675 5677 5679 5681 5682 5682 5682 5682 5682 5683 5681 5679 5678 5677 5675 5674 5673 5671 5671 5669 5668 5666 5665 5663 5661 5660 5659 5658 5657 5656 5656 5656 5656 5655
5608 5607 5614 5626 5634 5634 5632 5640 5655 5657 5656 5658 5660 5663 5665 5669 5672 5674 5676 5676 5677 5677 5676 5676 5675 5674 5673 5671 5669 5668 5666 5665 5663 5662 5661 5660 5658 5656 5654 5653 5651 5650 5649 5648 5647 5647 5647 5646 5646
5599 5599 5607 5614 5624 5624 5624 5633 5645 5650 5650 5651 5654 5657 5659 5664 5668 5670 5670 5670 5671 5670 5670 5669 5668 5667 5666 5663 5661 5659 5657 5656 5655 5653 5652 5651 5649 5647 5645 5644 5642 5640 5638 5637 5636 5636 5636 5636 5636
5597 5596 5600 5608 5616 5615 5617 5626 5639 5645 5644 5645 5648 5651 5655 5659 5663 5663 5664 5663 5663 5663 5662 5662 5661 5660 5658 5655 5653 5650 5648 5647 5646 5645 5643 5642 5640 5638 5636 5634 5631 5630 5628 5626 5625 5624 5624 5625 5624
5590 5590 5593 5600 5605 5608 5609 5619 5632 5638 5641 5645 5647 5649 5651 5653 5655 5656 5656 5655 5655 5655 5655 5654 5654 5652 5651 5649 5646 5643 5641 5638 5637 5635 5634 5632 5631 5628 5626 5623 5621 5619 5617 5615 5614 5612 5611 5612 5612
5582 5583 5587 5590 5594 5598 5599 5613 5626 5635 5638 5641 5644 5646 5647 5649 5650 5650 5648 5648 5647 5647 5647 5649 5646 5644 5643 5640 5637 5633 5630 5628 5626 5625 5623 5622 5621 5619 5616 5614 5611 5608 5606 5604 5603 5601 5600 5599 5599
5577 5584 5584 5583 5578 5578 5589 5590 5618 5626 5629 5635 5638 5637 5640 5643 5644 5643 5642 5640 5640 5640 5639 5639 5637 5635 5633 5631 5628 5625 5622 5619 5618 5616 5614 5612 5611 5609 5607 5604 5601 5598 5596 5594 5592 5591 5589 5587 5586
5574 5578 5576 5574 5570 5567 5574 5575 5605 5616 5623 5631 5633 5632 5634 5636 5637 5637 5636 5634 5633 5631 5629 5628 5627 5625 5623 5621 5618 5615 5612 5609 5607 5605 5603 5602 5600 5599 5596 5593 5590 5587 5585 5583 5582 5580 5578 5577 5574
5569 5566 5560 5554 5554 5559 5570 5567 5591 5605 5621 5627 5629 5628 5628 5629 5629 5628 5626 5624 5622 5620 5618 5617 5616 5614 5612 5610 5607 5605 5602 5599 5597 5595 5593 5591 5589 5587 5585 5582 5579 5576 5574 5572 5571 5570 5568 5565 5564
5561 5554 5545 5544 5541 5555 5566 5564 5589 5611 5617 5622 5624 5622 5621 5620 5619 5617 5615 5613 5612 5609 5607 5606 5605 5603 5602 5600 5597 5594 5592 5589 5587 5585 5583 5581 5578 5576 5574 5571 5569 5566 5564 5563 5561 5559 5557 5555 5552
5554 5554 5547 5543 5543 5548 5555 5560 5588 5607 5612 5613 5614 5614 5612 5611 5609 5608 5606 5604 5602 5600 5597 5595 5593 5592 5590 5589 5586 5583 5581 5579 5577 5575 5573 5570 5568 5566 5564 5561 5559 5557 5555 5552 5550 5548 5546 5544 5541
5547 5545 5549 5537 5532 5535 5546 5559 5579 5599 5601 5602 5603 5604 5603 5602 5601 5599 5596 5594 5592 5589 5587 5585 5583 5581 5579 5577 5574 5572 5571 5569 5566 5564 5562 5559 5557 5555 5554 5552 5549 5547 5544 5542 5539 5538 5536 5533 5531
5547 5541 5532 5532 5532 5536 5547 5553 5571 5590 5592 5593 5593 5593 5593 5592 5590 5588 5586 5584 5581 5579 5576 5574 5572 5570 5568 5566 5563 5562 5559 5556 5554 5552 5550 5548 5546 5544 5542 5541 5539 5536 5534 5531 5529 5527 5525 5523 5521
5532 5532 5532 5525 5525 5528 5536 5556 5577 5582 5585 5584 5584 5584 5583 5582 5580 5578 5575 5573 5570 5568 5565 5563 5561 5559 5556 5554 5552 5549 5547 5545 5543 5540 5538 5536 5535 5533 5531 5530 5528 5526 5524 5521 5519 5517 5514 5512 5510
5530 5530 5524 5522 5516 5512 5517 5548 5575 5572 5574 5573 5573 5573 5573 5572 5570 5567 5564 5561 5559 5557 5555 5552 5550 5548 5545 5543 5540 5537 5535 5532 5531 5529 5527 5525 5523 5522 5520 5518 5516 5515 5512 5510 5508 5506 5504 5501 5499